Location: Newark
(35.5300°N, 14.3000°E)
Time: 07:08:43
(UTC+00:00)

Explorer 7 - Visible Passes

Search period start: 17 November 2019 00:00
Search period end: 27 November 2019 00:00
Orbit: 485 x 680 km, 50.3° (Epoch: 17 November)

Date Brightness Start Highest point End Pass type
(mag) Time Alt. Az. Time Alt. Az. Time Alt. Az.
17 Nov 9.1 04:03:09 12° N 04:04:23 13° NNE 04:06:19 10° NE visible
18 Nov 9.0 04:08:02 13° N 04:09:42 17° NNE 04:12:17 10° ENE visible
19 Nov 8.6 04:12:57 16° NNW 04:14:57 22° NNE 04:18:05 10° ENE visible
20 Nov 8.1 04:17:55 19° NNW 04:20:08 32° NNE 04:23:39 10° E visible
21 Nov 7.3 04:22:57 23° NNW 04:25:13 51° NE 04:29:00 10° ESE visible
22 Nov 9.9 02:51:42 12° ENE 02:51:42 12° ENE 02:52:05 10° ENE visible
22 Nov 6.6 04:28:02 26° NW 04:30:12 88° NNE 04:34:05 10° SE visible
23 Nov 9.7 02:56:51 15° ENE 02:56:51 15° ENE 02:57:47 10° E visible
23 Nov 7.0 04:33:12 26° WNW 04:35:07 50° SW 04:38:52 10° SSE visible
24 Nov 9.5 03:02:05 18° E 03:02:05 18° E 03:03:16 10° ESE visible
24 Nov 7.9 04:38:26 22° W 04:39:56 28° SW 04:43:15 10° S visible
25 Nov 9.3 03:07:23 18° ESE 03:07:23 18° ESE 03:08:32 10° ESE visible
25 Nov 8.6 04:43:45 14° WSW 04:44:40 15° SW 04:47:01 10° SSW visible
26 Nov 9.4 03:12:45 15° SE 03:12:45 15° SE 03:13:31 10° SE visible
